Other Public Products
Issued by NWS Grand Forks, ND

Home | Current Version | Previous Version | Text Only | Print | Product List | Glossary Off
Versions: 1 2 3 4 5 6 7 8 9 10 11 12 13 14 15 16 17 18 19 20 21 22 23 24 25 26 27 28 29 30 31 32 33 34 35 36 37 38 39 40 41 42 43 44 45 46 47 48 49 50

000
FPUS83 KFGF 120610
OPUFGF
PRAIRIE TO PINES WEATHER ROUNDUP
NATIONAL WEATHER SERVICE EASTERN NORTH DAKOTA/GRAND FORKS ND
1200 AM CST TUE DEC 12 2017

 **SATELLITE DATA USED TO AUGMENT SKY COVER AT AUTOMATED STATIONS**
 *****  WEATHER ACROSS EASTERN NORTH DAKOTA  *****

CITY           SKY/WX    TMP DP  RH WIND       PRES   REMARKS
GRAND FORKS    MOCLDY     7   4  87 SW8       30.30F WCI  -6
6HR MIN TEMP:   2; 6HR MAX TEMP:   8;

GRND FORKS AFB CLOUDY    12   7  79 SW5       30.29F WCI   4
GRND FORKS NWS   N/A      7 N/A N/A NW2         N/A
BUXTON         NOT AVBL
DEVILS LAKE    CLOUDY    18  15  88 SW10      30.24F WCI   6
6HR MIN TEMP:  11; 6HR MAX TEMP:  18;

FARGO          FAIR       5   1  83 W5        30.32F WCI  -4
6HR MIN TEMP:   5; 6HR MAX TEMP:  14;

WAHPETON ARPT    N/A      5   1  85 W5        30.34S WCI  -4
$$

 *****  WEATHER ACROSS CENTRAL AND WESTERN NORTH DAKOTA  *****

CITY           SKY/WX    TMP DP  RH WIND       PRES   REMARKS
JAMESTOWN      FAIR      14  11  87 W5        30.27F WCI   6
6HR MIN TEMP:  13; 6HR MAX TEMP:  17;

BISMARCK       CLOUDY    21  19  92 CALM      30.30F
6HR MIN TEMP:  17; 6HR MAX TEMP:  28;

MINOT          CLOUDY    29  25  85 SW9       30.23F WCI  20
6HR MIN TEMP:  21; 6HR MAX TEMP:  29;

MINOT AFB      CLOUDY    30  26  87 W9        30.22F WCI  21
6HR MIN TEMP:  16; 6HR MAX TEMP:  30;

GARRISON         N/A     30  28  92 NW8       30.26F WCI  22
6HR MIN TEMP:  20; 6HR MAX TEMP:  30;

WILLISTON      CLEAR     25  21  86 W3        30.28F
DICKINSON      FAIR      26  24  92 W10       30.27F WCI  16
6HR MIN TEMP:  26; 6HR MAX TEMP:  34;

HETTINGER      FAIR      22  19  89 NW5       30.33S WCI  16
6HR MIN TEMP:  21; 6HR MAX TEMP:  35;

$$

 *****  OTHER OBSERVATIONS NORTHEAST NORTH DAKOTA  *****

CITY           SKY/WX    TMP DP  RH WIND       PRES   REMARKS
WALHALLA       FAIR      10  10 100 CALM      30.26F
LANGDON        MOCLDY    10  10 100 SW7       30.21F WCI   0
CAVALIER       MOCLDY     7   5  92 S3        30.27F
GRAFTON        CLOUDY     9   7  92 SW5       30.30F WCI   0
CANDO          CLOUDY    18  18 100 SW7       30.25F WCI   8
FORT TOTTEN      N/A     15  12  88 SW2       29.95S
ROLLA          CLOUDY    19  19 100 SW7       30.19F WCI  10
RUGBY          CLOUDY    19  19 100 W8        30.24F WCI   9
 ***** THE ABOVE OBSERVATIONS ARE NON NWS ARE NOT QUALITY
        CONTROLLED AND MAY MIS-REPORT RAIN FOR SNOW...
$$

 *****  OTHER OBSERVATIONS SOUTHEAST NORTH DAKOTA *****

CITY           SKY/WX    TMP DP  RH WIND       PRES   REMARKS
COOPERSTOWN    FAIR      10   9  92 SW7       30.28S WCI   0
VALLEY CITY    FAIR       9   9 100 SW3       30.29F
OAKES            N/A     10  10 100 SW7       30.32F WCI   0
GWINNER          N/A      9   5  85 W6        30.32F WCI  -1
SHEYENNE NWR     N/A      5   2  88 CALM      29.95S
BUFFALO        NOT AVBL
WYNDMERE       NOT AVBL
 ***** THE ABOVE OBSERVATIONS ARE NON NWS ARE NOT QUALITY
       CONTROLLED AND MAY MIS-REPORT RAIN FOR SNOW...
$$

  *****  WEATHER ACROSS NORTHERN MINNESOTA  *****

CITY           SKY/WX    TMP DP  RH WIND       PRES   REMARKS
FLAG ISLAND    FAIR       1  -2  85 NW5       30.22S WCI  -8
WARROAD        FAIR      -6  -9  84 SW5       30.23F WCI -17
ROSEAU         FAIR      -2  -8  78 SW5       30.24F WCI -12
HALLOCK        FAIR       3   1  92 SW6       30.27F WCI  -8
THF RVR FALLS  FAIR      -1  -4  87 W6        30.28F WCI -13
6HR MIN TEMP:  -1; 6HR MAX TEMP:   7; 6HR PCP: TRACE;

HALSTAD        NOT AVBL
FOSSTON        FAIR      -6  -9  84 CALM      30.26F
BAUDETTE       FAIR      -1  -4  87 W5        30.21F WCI -11
6HR MIN TEMP:  -1; 6HR MAX TEMP:   8;

WASKISH        FAIR       1  -2  85 W6        30.23F WCI -10
CROOKSTON      FAIR       1   0  92 S3        30.31F
$$
  *****  WEATHER ACROSS CENTRAL AND WEST MINNESOTA  *****

CITY           SKY/WX    TMP DP  RH WIND       PRES   REMARKS
BEMIDJI        FAIR      -2  -4  87 W6        30.23F WCI -14
6HR MIN TEMP:  -2; 6HR MAX TEMP:   9;

PARK RAPIDS    FAIR       1  -4  79 NW8       30.23S WCI -13
6HR MIN TEMP:   1; 6HR MAX TEMP:  11;

WADENA         FAIR       1   0  92 W5        30.25S WCI  -8
DETROIT LAKES  FAIR       3   1  92 NW5       30.27S WCI  -6
MOORHEAD       FAIR       7   1  78 CALM      30.32F
FERGUS FALLS   FAIR       3   0  85 NW6       30.34S WCI  -8
ELBOW LAKE     FAIR       6   3  88 NW6       30.31R WCI  -5
6HR MIN TEMP:   6; 6HR MAX TEMP:  13;

MORRIS MN      FAIR       9   3  78 NW7       30.30S WCI  -3
STAPLES        FAIR       1  -2  85 NW6       30.24S WCI -10
WHEATON        FAIR       9   5  85 W5        30.35F WCI   0
$$
  *****  WEATHER ELSEWHERE ACROSS MINNESOTA  *****

CITY           SKY/WX    TMP DP  RH WIND       PRES   REMARKS
DULUTH         FAIR       6   0  76 N14G21    30.11S WCI -11
6HR MIN TEMP:   6; 6HR MAX TEMP:  15; 6HR PCP: TRACE;

INTRNTL FALLS  FAIR      -1  -5  82 W7        30.19F WCI -14
6HR MIN TEMP:  -1; 6HR MAX TEMP:  11;

ELY            FAIR       3  -2  78 NW9       30.11S WCI -11
CLOQUET        FAIR       7   1  78 NW10G16   30.14S WCI  -8
BRAINERD       FAIR       6   0  76 NW7       30.23S WCI  -6
6HR MIN TEMP:   6; 6HR MAX TEMP:  19;

HIBBING        CLOUDY     4  -1  80 NW17      30.16R WCI -16
6HR MIN TEMP:   4; 6HR MAX TEMP:  14; 6HR PCP: TRACE;

ALEXANDRIA     FAIR       6   2  83 N10       30.25F WCI  -9
6HR MIN TEMP:   6; 6HR MAX TEMP:  14;

SAINT CLOUD    FAIR       8   4  83 NW9       30.25R WCI  -5
6HR MIN TEMP:   8; 6HR MAX TEMP:  22;

MINNEAPOLIS    FAIR      16  10  77 NW14G24   30.23R WCI   2
6HR MIN TEMP:  16; 6HR MAX TEMP:  27;

$$

  *****  WEATHER ACROSS SOUTH DAKOTA  *****

CITY           SKY/WX    TMP DP  RH WIND       PRES   REMARKS
SIOUX FALLS    FAIR      15  12  88 W3        30.34S
6HR MIN TEMP:  15; 6HR MAX TEMP:  28;

BROOKINGS      FAIR      14  11  87 NW5       30.32F WCI   6
WATERTOWN      FAIR      13  11  92 NW7       30.29F WCI   3
6HR MIN TEMP:  12; 6HR MAX TEMP:  18;

HURON          FAIR      14  12  92 W7        30.37F WCI   4
6HR MIN TEMP:  13; 6HR MAX TEMP:  25;

SISSETON         N/A     11   8  88 NW5       30.32F WCI   3
ABERDEEN       FAIR       7   6  96 SW6       30.36S WCI  -3
6HR MIN TEMP:   7; 6HR MAX TEMP:  20;

MITCHELL       FAIR      17  14  88 NW8       30.40S WCI   7
PIERRE         MOCLDY    30  28  92 NW5       30.35F
6HR MIN TEMP:  28; 6HR MAX TEMP:  35;

MOBRIDGE       FAIR      21  19  92 CALM      30.31S
RAPID CITY     FAIR      24  16  71 SW3       30.37F
6HR MIN TEMP:  17; 6HR MAX TEMP:  34;

$$

  *****  SOME WEATHER IN NEARBY STATES *****

CITY           SKY/WX    TMP DP  RH WIND       PRES   REMARKS
GLASGOW MT     FAIR      27  20  75 SE5       30.27F WCI  22
6HR MIN TEMP:  24; 6HR MAX TEMP:  35;

GREAT FALLS MT FAIR      41  11  29 SW18      30.30F
6HR MIN TEMP:  37; 6HR MAX TEMP:  45;

CHEYENNE WY    FAIR      26  15  63 W10       30.43S WCI  16
6HR MIN TEMP:  24; 6HR MAX TEMP:  41;

SCOTTSBLUFF NE FAIR      24  14  65 N8        30.41S WCI  15
6HR MIN TEMP:  22; 6HR MAX TEMP:  43;

OMAHA NE       FAIR      26  16  65 N18       30.34R WCI  13
6HR MIN TEMP:  26; 6HR MAX TEMP:  40;

DES MOINES IA  FAIR      23  14  68 NW15      30.25R WCI  10
6HR MIN TEMP:  23; 6HR MAX TEMP:  35; 6HR PCP: TRACE;

DAVENPORT IA   FAIR      28  19  69 NW24G37   30.08R WCI  14
6HR MIN TEMP:  28; 6HR MAX TEMP:  35;

CHICAGO IL     CLOUDY    31  20  63 NW20G29   29.90R WCI  19
6HR MIN TEMP:  31; 6HR MAX TEMP:  33; 6HR PCP:  0.01;

EAU CLAIRE WI  FAIR      15   6  67 NW12G23   30.14R WCI   2
6HR MIN TEMP:  15; 6HR MAX TEMP:  26;

LA CROSSE WI   FAIR      20   9  62 N13       30.14R WCI   7
6HR MIN TEMP:  19; 6HR MAX TEMP:  33;

$$

  *****  SOME NATIONAL WEATHER *****

CITY           SKY/WX    TMP DP  RH WIND       PRES   REMARKS
LA GUARDIA NY  CLOUDY    41  26  55 S9        29.91F


USA.gov is the U.S. government's official web portal to all federal, state and local government web resources and services.